Temp_Advection
nan nan nan nan nan nan nan nan nan nan nan nan nan nan nan nan nan nan nan nan nan nan nan nan nan nan nan nan nan nan nan nan nan nan nan nan nan nan nan nan nan nan nan nan nan nan nan nan nan nan nan nan nan nan nan nan nan nan nan nan nan nan nan nan nan nan nan nan nan
nan -0 -1 -1 -1 -1 -1 -0 -0 0 0 0 0 0 0 0 0 0 1 0 0 0 0 0 0 0 0 0 0 0 0 0 0 0 0 -0 -0 -0 -0 -0 -0 0 0 0 0 0 0 0 0 0 0 0 0 0 0 0 0 -0 -0 -0 -0 -0 -0 -0 -0 -0 -0 -0 nan
nan -0 -0 -0 -0 -0 -0 -0 0 1 1 1 1 1 1 0 0 1 1 1 0 0 0 0 0 0 0 0 0 0 0 0 0 0 0 -0 -0 -0 -0 0 0 0 0 0 0 0 0 0 0 -0 -0 0 0 0 0 0 0 -0 -0 -0 -0 -0 -1 -0 -0 -0 -0 -0 nan
nan -0 -0 0 0 0 -0 -0 0 1 1 1 1 1 1 1 1 1 1 1 1 1 0 0 0 0 0 0 0 0 0 0 0 0 0 0 0 0 0 0 0 0 0 0 -0 -0 -0 -0 -0 -0 -0 -0 -0 -0 0 0 -0 -0 -0 -0 -0 -0 -0 -0 -0 -0 -0 -0 nan
nan 1 1 2 2 1 1 1 1 1 1 1 1 1 1 1 1 1 1 1 1 1 0 0 0 0 0 0 0 0 0 0 0 0 0 0 0 0 0 0 0 0 0 -0 -0 -0 -0 -0 -0 -0 -0 -0 0 0 0 -0 -0 -0 -0 -0 -0 -0 -0 -0 -0 -0 -0 -0 nan
nan 3 3 3 3 3 2 2 2 1 1 1 1 1 1 1 1 1 0 0 0 0 0 0 0 0 0 0 0 0 0 0 0 0 0 0 0 0 0 0 0 0 0 -0 -0 -0 -0 -0 -0 -0 0 0 0 0 0 -0 -0 -0 -0 -0 -0 -0 -0 -0 -0 -0 -0 -0 nan
nan 3 3 3 3 3 2 2 1 1 1 1 1 1 1 1 0 0 0 0 0 0 0 0 0 0 0 0 -0 -0 0 0 0 0 0 0 0 0 0 0 0 0 0 -0 -0 -0 -0 -0 -0 0 0 0 0 0 0 -0 -0 -0 -0 -0 -0 -0 -0 -0 -0 -0 -0 -0 nan
nan 2 2 1 2 1 1 1 1 1 1 1 0 0 0 0 0 0 0 0 0 0 0 0 0 0 0 0 0 0 0 0 0 0 0 0 0 0 0 0 0 0 0 -0 -0 -0 -0 -0 0 0 0 0 0 0 0 -0 -0 -0 -0 -0 -0 -0 -0 -0 -0 -0 -0 -0 nan
nan 1 1 1 1 1 0 0 0 0 1 1 0 0 0 0 0 0 0 0 0 0 0 0 0 0 0 0 0 0 0 0 0 0 0 0 0 0 0 0 0 0 0 0 -0 -0 0 0 0 0 0 0 0 0 0 0 -0 -0 -0 -0 -0 -0 -0 -0 -0 -0 -0 -0 nan
nan 1 1 0 0 0 0 0 0 1 0 0 0 0 0 0 0 0 0 0 0 0 0 0 0 0 0 0 0 0 0 0 0 0 0 0 0 0 0 0 0 0 0 0 0 0 0 0 0 0 1 0 0 0 0 0 -0 -0 -0 -0 -0 -0 -0 -0 -0 -0 -0 -0 nan
nan 1 0 0 0 0 0 0 0 0 0 0 0 1 0 0 0 0 0 0 0 0 0 0 -0 0 0 0 0 0 0 0 0 0 0 0 0 0 0 0 0 0 0 0 0 0 0 0 0 0 1 1 1 0 0 0 0 -0 -0 -0 -0 -0 -0 -0 -0 -0 -0 -0 nan
nan 0 0 0 0 0 0 0 0 0 0 0 1 1 0 0 0 0 0 0 0 0 0 -0 0 0 0 0 0 0 0 0 0 0 0 0 0 0 0 0 0 0 0 0 0 0 0 0 0 1 1 1 1 0 0 0 -0 -0 -0 -0 -0 -0 -0 -0 -0 -0 -0 -0 nan
nan 0 0 0 0 0 0 0 0 0 0 1 1 1 0 0 0 -0 0 0 0 0 -0 -0 0 0 0 0 0 0 0 0 0 0 0 0 0 0 0 0 0 0 0 0 0 0 0 0 1 1 1 1 1 1 0 0 0 -0 -0 -0 -0 -0 0 0 0 -0 -0 -0 nan
nan 0 -0 0 0 0 0 0 0 0 1 1 1 0 0 0 -0 -0 0 0 0 -0 -0 -0 0 0 0 0 0 0 0 0 0 0 0 0 0 0 0 0 0 0 0 0 0 0 1 1 1 1 1 1 1 1 1 0 -0 -0 -0 -0 -0 0 0 0 0 -0 -0 -0 nan
nan -0 -0 0 0 0 0 0 0 1 1 1 0 0 0 0 -0 -0 0 0 -0 -0 -0 0 0 0 0 0 0 0 0 0 0 0 0 0 0 0 0 0 0 0 0 0 0 0 1 1 1 1 1 1 1 1 0 0 -0 -0 -0 -0 -0 0 0 0 0 0 -0 -0 nan
nan -0 0 0 1 1 1 1 1 1 1 0 0 0 0 -0 -0 -0 -0 -0 -0 -0 0 0 0 0 0 0 0 0 0 0 0 0 0 0 0 0 0 0 1 0 0 0 0 0 1 1 1 1 1 1 1 1 0 0 0 -0 -0 0 0 0 0 0 0 -0 -0 -0 nan
nan -0 0 1 1 1 0 0 0 0 1 1 0 0 -0 -1 -0 -0 -0 -0 -0 0 0 0 0 0 0 0 0 0 0 0 0 0 0 0 0 0 0 0 1 0 0 0 0 0 1 1 1 1 1 1 1 0 0 0 0 0 0 0 0 0 0 0 -0 -0 -0 -0 nan
nan 0 1 1 1 0 0 0 0 1 1 0 -0 -1 -1 -1 -0 -0 -0 0 0 0 0 0 0 0 0 0 0 0 0 0 0 0 0 0 0 0 0 0 1 0 0 -0 0 0 1 1 1 1 1 1 1 0 0 0 0 0 1 0 0 0 0 0 -0 0 -0 -0 nan
nan 1 1 1 0 0 0 0 1 0 0 -0 -1 -1 -1 -0 -0 0 0 0 0 0 0 1 1 1 0 0 0 0 0 0 0 0 0 0 0 0 0 1 1 1 0 0 -0 0 0 1 1 1 1 1 1 0 0 0 0 1 1 0 0 0 0 0 0 0 -0 -0 nan
nan 1 1 1 0 0 1 1 1 0 -1 -1 -1 -1 -0 -0 0 0 0 0 0 0 1 1 1 0 0 0 0 0 0 0 0 0 0 0 0 0 0 1 1 0 0 -0 -0 -0 0 1 1 1 1 1 1 1 1 1 1 1 1 0 0 0 0 0 -0 -0 -0 -0 nan
nan 1 1 0 0 0 1 1 0 -0 -1 -1 -1 -1 -0 0 0 0 0 0 0 1 1 1 1 0 0 0 0 0 0 0 -0 -0 -0 0 0 0 0 0 1 0 -0 -0 -0 -0 0 1 1 1 1 1 1 1 1 1 1 1 1 0 0 0 0 0 0 0 0 -0 nan
nan 1 0 0 0 0 1 0 -0 -1 -1 -1 -0 -0 0 0 0 0 0 0 0 1 1 1 0 0 0 0 0 0 0 0 -0 -0 -0 -0 0 0 1 1 0 0 -0 -0 -0 0 1 1 1 1 1 1 1 1 1 0 0 0 0 0 0 0 0 0 0 0 0 0 nan
nan 0 0 0 0 1 0 -0 -1 -1 -1 -0 -0 0 0 0 0 -0 -0 0 1 1 1 1 0 0 0 0 0 0 0 0 0 -0 -0 -0 -0 0 0 1 0 0 -0 -0 0 1 1 1 1 1 1 1 1 1 1 0 0 0 0 0 0 0 0 0 0 0 0 0 nan
nan 0 0 0 0 0 -0 -1 -1 -1 -0 -0 0 0 0 0 -0 -0 -0 0 1 1 1 0 0 0 0 0 0 0 0 0 0 0 -0 -0 -0 -0 0 1 0 -0 -0 0 0 1 1 1 1 1 1 1 1 1 1 1 0 0 0 -0 -0 -0 0 0 0 0 0 0 nan
nan 1 0 0 0 -0 -1 -1 -1 -1 -0 -0 0 0 0 -0 -0 -0 0 1 1 1 1 0 0 0 1 1 1 0 0 -0 -0 -0 0 0 0 -0 -0 1 1 0 -0 -0 0 1 1 1 1 1 1 1 1 1 1 1 1 0 0 0 -0 -0 -0 -0 0 0 0 -0 nan
nan 1 0 -0 -0 -1 -1 -1 -1 -0 0 0 1 1 0 -0 -0 -0 0 1 1 1 0 0 0 0 1 1 1 0 0 0 -0 -0 -0 -0 0 0 -0 -0 0 0 0 0 1 1 1 1 2 1 1 1 1 1 1 1 1 0 0 0 0 0 0 0 0 0 0 -0 nan
nan 1 -0 -1 -1 -1 -1 -1 -0 0 0 1 1 0 -0 -1 -0 0 1 1 1 1 0 0 0 1 1 1 0 0 0 0 -0 -0 -0 -0 -0 -0 -0 -1 -2 -1 0 1 1 1 1 1 2 2 2 1 1 1 1 1 1 0 0 0 0 0 0 0 0 0 -0 -0 nan
nan 0 -1 -1 -0 -0 -0 -0 0 0 0 0 0 -0 -0 -0 0 1 1 1 1 0 1 0 0 1 1 1 0 0 0 -0 -0 -0 -0 0 0 0 0 -0 -2 -2 -1 0 1 1 1 1 1 2 2 2 1 1 0 0 0 0 0 0 0 0 0 1 0 0 -0 -0 nan
nan -0 -1 -1 -0 -0 -0 0 0 0 0 0 0 -0 -0 -0 0 1 1 1 0 1 1 1 1 1 1 1 1 0 0 -0 -0 -0 -0 0 0 0 0 0 -1 -3 -2 -0 0 0 1 1 1 1 2 1 1 1 0 0 0 0 0 0 0 0 0 0 0 0 -0 -0 nan
nan -1 -1 -1 -0 -0 -0 -0 0 0 0 0 -0 -0 -0 -0 0 0 0 1 1 1 1 1 1 1 1 1 0 0 0 0 -0 -0 -0 -0 0 0 0 0 -0 -2 -2 -0 0 -0 -0 0 0 1 1 1 1 0 0 0 0 0 -0 -0 0 0 0 0 0 0 -0 -0 nan
nan -1 -1 -1 -0 -0 -0 -0 0 -0 -0 -0 -0 -0 -0 0 0 1 1 1 1 1 1 1 1 1 1 0 0 0 0 0 0 -0 -0 -0 0 0 0 -0 -0 -1 -1 1 1 1 0 -0 0 0 1 0 0 0 -0 -0 -0 -0 -0 -0 0 0 0 0 0 -0 -0 -0 nan
nan -1 -1 -0 -0 -0 -0 -0 -0 -1 -1 -1 -1 -0 0 1 1 1 1 1 1 1 1 1 1 1 0 0 0 0 0 -0 -0 0 0 0 0 0 0 -1 -2 -0 1 1 2 2 2 1 1 1 1 1 0 -0 -0 -0 -0 0 0 0 0 0 1 0 0 -0 -0 -0 nan
nan -1 -1 -0 -0 -0 -0 -1 -1 -1 -1 -0 0 1 1 1 1 1 1 0 1 1 1 1 1 0 0 0 0 0 0 0 -0 -0 0 0 1 1 0 -1 -3 -1 1 1 2 2 2 2 2 2 2 1 1 0 0 0 0 0 0 0 1 1 1 0 -0 -0 -0 -0 nan
nan -1 -1 -1 -0 -0 -1 -1 -1 -1 -0 1 1 1 1 1 1 1 1 1 1 1 1 1 1 0 0 0 0 0 0 0 0 -0 0 0 1 1 0 -2 -3 -1 1 1 1 2 2 2 2 2 2 1 1 1 0 0 0 0 0 1 1 1 1 0 0 0 0 0 nan
nan -1 -1 -1 -1 -1 -1 -1 -1 0 1 1 1 1 2 1 1 1 1 1 2 2 1 1 1 0 0 0 0 0 0 0 0 0 0 1 1 1 0 -2 -4 -1 2 2 1 1 2 2 3 2 2 1 1 1 1 0 0 0 0 0 1 1 1 1 0 0 0 0 nan
nan -2 -2 -2 -1 -1 -1 -1 -0 1 1 1 2 2 2 1 1 1 1 1 2 1 1 0 0 0 0 0 0 0 0 0 0 0 0 1 1 1 1 -2 -4 -2 1 2 1 1 1 2 2 2 2 1 1 1 1 0 0 0 0 0 1 1 1 1 1 0 0 0 nan
nan -2 -2 -1 -1 -1 -1 -0 0 0 1 1 2 2 2 1 1 1 1 2 2 1 0 0 -0 -0 0 0 0 0 0 0 0 0 0 1 1 1 1 -0 -3 -3 0 2 1 0 1 2 2 2 2 1 1 1 1 0 0 0 0 0 0 1 1 1 0 0 0 0 nan
nan -2 -1 -1 -0 -0 0 0 0 1 1 2 3 3 2 1 1 1 1 2 1 1 0 0 -0 0 0 0 0 0 0 0 0 0 1 1 1 1 2 1 -1 -3 -2 1 1 1 1 1 2 2 2 1 1 1 0 0 0 0 0 0 0 0 0 0 0 0 0 0 nan
nan -2 -1 -0 0 1 1 0 1 1 2 3 3 2 2 1 0 0 1 2 1 0 0 0 0 0 0 0 -0 0 0 0 0 0 1 1 1 1 1 2 1 -2 -2 0 1 1 0 1 1 2 1 1 1 0 0 0 0 0 0 0 0 0 0 0 0 0 0 1 nan
nan -1 -0 0 1 1 1 1 1 2 3 3 3 2 1 0 -0 1 2 1 1 0 0 0 0 1 0 0 -0 -0 0 0 0 0 1 1 1 1 1 2 1 -1 -1 -0 1 0 0 0 1 1 1 1 1 0 0 0 0 0 1 0 0 0 0 0 0 0 0 1 nan
nan nan nan nan nan nan nan nan nan nan nan nan nan nan nan nan nan nan nan nan nan nan nan nan nan nan nan nan nan nan nan nan nan nan nan nan nan nan nan nan nan nan nan nan nan nan nan nan nan nan nan nan nan nan nan nan nan nan nan nan nan nan nan nan nan nan nan nan nan
Wind_Speed
29 27 25 23 21 22 23 23 23 22 20 20 20 20 21 21 21 21 21 21 20 18 16 14 12 11 9 8 7 6 6 7 7 8 9 9 10 11 12 13 14 14 15 15 15 15 15 15 15 15 15 15 15 15 15 15 15 15 15 15 15 16 16 17 17 18 18 19 19
25 23 20 19 18 20 21 22 22 21 20 20 20 21 21 21 21 21 21 20 19 17 15 13 11 9 9 8 7 6 6 6 6 7 9 10 11 12 14 15 16 16 16 17 16 16 16 16 16 16 15 15 15 15 15 14 14 14 14 15 15 16 16 17 17 17 17 18 18
22 20 19 18 19 20 22 23 24 24 23 22 22 22 22 21 20 20 20 19 18 15 13 11 10 9 8 7 6 5 5 6 6 8 9 10 12 13 15 16 18 18 18 18 18 17 17 16 16 16 15 15 15 14 14 14 13 13 14 15 15 15 15 16 16 16 16 17 17
21 21 21 21 21 22 23 24 25 26 26 24 23 23 22 21 20 19 19 18 16 14 12 11 10 9 8 6 6 5 5 6 7 8 9 11 12 14 16 18 19 20 20 20 19 18 18 17 16 16 15 14 14 14 13 13 13 13 14 14 14 15 15 15 16 16 16 16 16
24 25 25 25 25 25 26 27 28 28 26 24 24 23 22 21 19 18 17 16 14 13 13 12 10 9 8 7 6 5 6 6 7 8 9 11 13 15 17 19 21 22 22 21 20 20 19 18 17 16 15 14 13 13 13 13 13 13 14 14 14 14 14 15 15 15 16 16 16
27 27 27 27 27 28 28 29 29 28 26 24 24 23 22 20 19 18 16 15 14 14 13 12 11 9 8 7 6 5 6 7 8 9 10 11 13 15 17 19 22 23 23 23 22 21 20 19 17 16 15 14 13 13 12 12 13 13 13 14 14 14 14 15 15 15 16 16 16
27 28 28 29 29 29 29 29 28 27 26 24 23 22 22 20 19 17 16 15 15 14 13 12 11 9 8 7 6 6 6 7 8 9 11 12 14 16 18 20 22 24 24 24 23 22 20 19 18 17 15 14 14 13 12 12 12 13 13 14 14 15 15 15 16 16 16 17 17
27 28 28 29 29 28 28 27 27 26 25 24 23 22 21 20 18 18 17 16 15 14 13 11 10 9 8 6 6 6 6 7 9 10 12 13 15 16 18 20 22 24 25 24 23 22 21 20 19 17 16 15 14 13 13 13 13 14 14 15 16 16 16 16 16 17 18 18 19
27 28 28 28 28 27 26 25 25 25 24 23 22 21 20 19 19 18 18 17 15 13 12 11 10 9 8 6 6 6 7 8 9 11 13 14 16 17 19 21 23 24 25 25 24 23 22 21 20 18 17 15 15 14 14 14 14 15 15 16 16 16 16 17 17 18 19 20 21
28 28 28 28 26 25 24 24 24 24 23 22 21 20 20 19 19 19 18 17 15 13 12 11 10 9 7 7 7 7 8 9 10 12 13 15 16 18 19 21 23 24 25 24 24 24 23 22 21 19 18 16 15 15 15 15 15 15 16 16 16 17 17 17 18 19 19 20 21
28 28 27 27 26 25 24 24 24 23 22 21 21 21 21 20 20 19 18 16 14 13 12 11 10 9 8 7 7 8 9 10 11 13 14 16 17 18 20 21 23 24 24 24 25 25 24 23 21 20 18 17 16 16 16 16 15 15 16 16 17 17 18 18 19 19 20 20 21
28 27 27 27 26 25 25 25 24 23 22 21 22 22 22 21 21 19 17 16 15 14 13 12 10 9 9 8 8 9 10 11 12 13 15 16 18 19 20 21 23 24 24 24 25 25 25 24 22 20 19 17 17 16 16 16 16 16 16 16 17 18 19 19 20 20 20 20 20
27 27 27 27 27 26 26 25 25 24 23 22 23 24 23 22 21 19 18 16 15 14 13 12 11 10 10 9 9 10 11 12 13 14 16 17 18 19 21 22 23 24 24 25 26 26 25 24 22 20 19 18 18 17 17 16 16 16 16 17 17 18 19 19 20 20 19 19 19
27 27 27 28 28 27 26 26 25 24 23 23 24 24 24 23 21 20 18 17 16 15 14 13 12 11 11 10 10 11 12 13 14 15 16 18 19 20 21 22 23 24 25 26 27 27 25 24 22 20 19 19 18 17 17 16 15 15 16 16 17 18 18 18 18 18 18 17 17
28 28 28 29 29 28 27 26 25 24 24 24 24 24 24 23 22 20 18 17 16 15 14 13 12 12 11 11 11 12 13 14 15 16 17 18 19 20 22 23 23 24 25 26 26 26 26 24 22 20 19 18 18 17 15 14 14 14 15 16 16 17 17 17 17 16 16 16 17
28 29 29 30 30 29 28 27 25 24 24 24 24 24 24 23 21 20 18 17 16 14 14 13 13 13 12 12 12 13 13 14 15 17 18 19 20 21 22 24 24 25 26 27 27 27 27 25 22 20 18 17 16 15 14 14 14 14 15 16 16 17 17 17 16 16 16 16 17
29 30 30 30 30 30 29 27 25 24 24 25 25 25 24 22 20 19 18 16 15 14 14 14 13 13 13 13 13 14 14 15 16 17 18 19 20 22 23 24 25 25 26 27 28 28 27 25 22 19 17 16 15 15 14 15 16 16 17 17 17 17 17 17 17 17 17 17 17
30 30 31 31 30 30 29 27 25 25 25 25 25 24 23 21 19 18 17 16 15 14 14 14 14 14 14 14 14 14 15 16 17 18 19 20 21 22 24 25 25 26 26 27 28 28 26 24 21 18 16 15 14 15 15 17 17 18 18 18 18 18 17 17 17 18 18 18 19
31 31 31 31 31 30 29 27 26 26 26 27 26 24 21 19 18 17 16 16 15 15 15 15 14 14 14 14 14 15 16 16 17 18 19 20 21 23 24 25 26 26 26 27 28 28 26 23 19 16 15 14 15 16 17 18 18 18 18 18 18 17 17 18 18 19 19 20 20
32 32 32 31 31 30 28 27 27 27 27 27 25 23 21 19 18 17 17 16 15 15 15 15 15 15 15 15 15 15 16 17 17 18 19 21 22 23 24 26 26 26 27 27 27 27 24 21 18 15 15 15 16 17 18 19 19 19 18 18 18 18 18 19 19 20 21 22 22
32 32 31 31 31 30 28 28 28 28 27 26 24 22 20 19 18 17 17 16 16 16 15 15 15 15 15 15 15 15 16 17 17 18 20 21 22 23 25 26 26 27 27 26 26 25 22 19 17 16 16 17 17 18 18 19 19 19 19 19 19 19 20 20 21 22 22 22 22
32 32 31 31 30 29 28 28 28 28 26 24 23 21 20 19 19 18 17 16 16 16 16 16 16 15 15 15 15 15 16 17 17 18 20 21 22 24 25 26 27 26 26 25 24 23 21 19 18 17 17 17 17 18 18 18 19 19 20 20 21 21 22 23 23 23 23 22 20
32 31 30 31 30 29 28 29 28 26 25 23 22 21 21 20 19 18 17 17 16 16 16 16 16 16 16 15 15 16 16 16 17 18 20 21 23 24 25 26 26 25 24 23 24 23 21 20 19 18 17 17 18 18 19 19 20 21 22 23 23 24 24 25 24 22 20 19 18
31 30 30 30 30 29 29 28 27 25 24 23 22 21 21 20 20 19 18 17 17 17 17 17 16 16 16 16 16 16 16 17 18 19 20 21 22 24 25 25 24 23 23 24 25 24 23 21 20 19 19 19 19 19 20 21 22 23 24 25 26 26 26 25 23 20 17 15 15
31 30 29 31 30 30 29 28 26 25 24 23 22 21 21 21 20 19 18 18 18 18 17 17 17 16 16 16 16 16 16 17 18 19 20 21 22 23 24 24 22 22 24 26 26 26 25 23 22 21 20 20 20 20 21 22 23 24 25 26 26 27 26 25 21 17 14 13 14
30 30 30 31 31 31 29 28 26 24 23 22 22 21 21 21 20 19 19 18 18 18 18 18 17 17 16 16 16 16 16 17 17 18 20 21 22 23 24 25 24 24 25 27 27 26 25 24 23 22 21 20 21 21 22 23 24 25 25 26 26 26 25 23 19 15 12 12 13
30 30 31 32 32 31 29 27 25 24 23 22 22 22 21 21 20 19 19 19 19 19 18 18 18 17 17 16 16 16 16 16 17 18 19 20 21 22 24 24 25 27 27 27 27 26 26 25 24 23 22 21 21 21 22 23 24 24 25 26 26 25 23 20 17 14 12 13 14
30 31 32 33 33 31 29 26 25 24 23 23 23 22 22 21 20 20 19 19 19 19 19 18 18 17 17 16 15 15 15 16 16 17 18 18 19 21 22 22 24 27 29 28 27 27 27 26 26 24 23 21 21 21 21 22 23 24 25 25 25 24 22 18 15 13 13 14 14
30 31 33 34 33 31 28 27 25 25 24 23 23 22 22 21 20 20 19 19 19 19 18 18 18 17 16 15 14 14 14 15 16 17 17 18 18 20 21 21 23 27 30 29 28 28 28 28 27 26 24 22 21 21 21 22 23 24 24 25 25 23 21 17 14 13 13 15 15
31 32 34 35 33 31 28 27 26 25 24 24 23 23 22 21 21 20 20 19 19 18 18 18 17 16 15 14 13 13 14 14 15 16 17 17 17 19 20 19 22 27 30 29 28 28 28 28 28 26 24 22 22 21 22 22 23 24 24 25 24 22 19 15 13 13 14 15 15
32 34 35 35 33 31 29 27 26 25 25 24 24 23 22 22 21 20 19 19 18 18 18 17 16 15 13 13 13 13 13 14 15 15 15 15 16 18 19 19 22 27 30 29 28 28 27 27 27 26 24 23 23 22 23 23 23 24 24 24 23 20 17 14 13 13 14 15 15
35 36 37 35 33 31 29 27 26 26 25 25 24 23 23 22 21 19 19 18 18 18 17 16 15 13 13 12 12 12 13 14 14 14 14 15 16 18 19 20 25 29 30 29 27 26 26 26 26 25 24 24 23 23 24 24 24 24 24 24 21 18 15 13 13 13 14 15 15
37 38 37 35 33 31 29 27 27 26 25 25 24 23 22 21 20 19 18 18 18 18 17 16 14 13 12 12 12 12 12 13 14 14 15 15 16 17 19 22 27 30 30 28 27 26 26 25 25 24 24 24 24 24 25 25 25 25 24 23 20 17 14 13 13 14 14 15 15
39 39 37 35 33 31 29 28 27 26 25 24 23 22 22 21 20 19 19 19 19 18 17 15 13 12 11 11 11 11 12 13 14 14 15 15 16 16 18 22 28 30 29 27 27 26 26 25 25 24 24 25 25 25 26 26 26 25 24 23 20 18 16 15 15 15 15 15 15
40 39 37 35 32 31 29 28 26 25 24 23 23 22 21 21 20 20 19 19 19 17 16 14 13 12 11 11 11 12 12 13 13 14 15 16 15 15 17 22 27 30 29 27 27 27 27 26 25 25 25 25 26 26 26 26 26 25 24 23 21 18 17 16 16 16 16 16 16
40 39 37 34 32 30 28 27 25 24 23 22 22 22 21 21 20 19 19 19 18 17 15 14 12 12 11 11 12 12 13 13 14 15 16 16 15 15 16 20 26 29 29 27 27 27 27 26 25 25 25 25 26 26 25 25 24 24 23 22 20 19 17 16 16 16 17 17 17
40 38 35 33 31 28 27 25 24 23 22 21 22 22 21 21 20 20 20 20 18 16 14 13 12 12 12 12 12 13 14 15 15 15 16 16 16 15 15 18 22 27 29 28 28 28 27 26 25 25 24 25 24 24 23 23 22 22 21 20 19 18 17 17 17 17 17 17 18
40 37 34 31 29 26 25 23 22 21 21 21 21 21 21 20 20 21 21 20 17 15 14 13 13 12 13 13 13 13 14 15 15 16 16 16 16 16 16 16 19 23 28 28 28 27 27 26 24 23 22 22 21 21 21 21 21 21 20 20 19 18 17 17 17 18 18 18 17
39 36 33 30 28 25 23 22 20 20 20 20 21 21 20 21 21 21 21 19 16 14 13 13 12 12 13 13 13 13 14 15 16 17 16 16 16 17 17 16 18 22 27 28 28 27 26 24 22 20 19 18 18 19 19 20 20 20 20 19 19 18 18 18 18 18 18 18 16
39 36 33 30 27 25 23 22 20 20 20 20 21 21 21 21 22 22 20 17 15 13 12 12 12 12 13 13 13 13 14 16 17 17 17 16 17 18 19 19 19 22 26 27 26 25 23 21 19 17 16 16 16 18 19 19 20 20 19 18 18 18 19 19 18 18 17 16 15
39 36 33 30 28 26 24 23 21 20 20 21 21 21 22 22 23 21 19 15 13 12 12 11 11 12 12 12 13 13 14 15 16 17 17 17 17 18 19 20 20 21 22 24 24 23 21 19 17 16 15 15 17 18 18 19 19 19 19 18 18 19 19 19 18 17 16 15 14
Wind_Direction
171 169 168 169 169 166 162 160 158 159 161 161 163 164 165 164 165 168 170 170 169 170 173 177 183 192 203 220 244 270 295 316 332 342 348 351 352 353 352 350 347 343 339 334 330 326 323 319 315 310 307 302 298 294 290 286 283 279 276 275 275 275 276 276 276 276 276 275 275
172 175 178 178 176 170 164 162 162 165 168 170 171 170 169 169 171 173 174 176 177 178 181 185 191 203 218 237 257 278 299 318 332 339 344 348 351 353 353 351 349 345 342 338 334 331 326 322 317 312 308 304 300 296 292 288 283 279 276 274 274 275 276 277 276 276 275 275 274
181 185 189 193 188 177 168 165 165 167 170 173 174 173 173 174 176 178 180 182 184 186 187 190 197 211 226 242 259 278 299 316 327 334 340 346 350 352 353 351 349 347 344 341 338 334 330 325 320 316 312 308 303 298 294 290 285 280 277 276 276 276 277 278 277 276 276 275 275
193 194 197 200 194 183 175 173 171 169 169 172 174 175 177 179 181 182 184 186 188 188 188 192 200 212 225 238 254 275 295 311 322 330 338 343 347 350 350 349 348 347 345 343 340 337 333 329 325 320 315 310 304 299 294 289 283 279 277 276 276 277 278 277 277 277 276 276 276
201 202 200 197 192 186 181 177 173 170 170 173 174 176 178 181 182 183 184 185 186 187 190 196 205 215 225 236 252 273 294 308 319 328 335 340 343 345 345 346 346 346 345 344 341 339 336 333 329 324 318 310 303 296 290 284 280 277 277 276 276 276 277 277 277 277 277 277 276
197 196 192 188 184 180 177 174 171 171 174 176 176 177 178 180 181 182 182 184 185 189 195 204 213 220 228 239 256 278 297 309 317 325 331 336 338 339 340 342 343 344 345 344 342 341 338 335 330 325 318 309 300 293 286 280 277 277 278 278 277 277 277 278 278 277 277 277 276
190 187 183 178 175 172 171 170 171 173 175 177 177 178 180 181 181 181 183 185 189 196 204 212 219 224 230 242 261 282 299 311 318 322 327 330 332 333 335 338 340 342 343 344 343 341 339 335 330 324 317 309 300 292 285 278 276 276 279 280 278 277 278 279 278 278 277 278 277
187 183 179 174 171 169 168 169 171 174 176 178 179 181 183 183 181 183 186 191 197 204 211 217 222 227 234 247 265 286 301 311 316 320 323 324 326 328 331 333 337 340 342 343 342 340 338 334 329 323 316 308 299 291 284 277 275 276 278 280 279 278 278 280 279 279 279 279 279
184 181 178 174 171 170 170 172 174 176 177 178 181 184 185 183 183 186 191 197 204 210 216 220 224 231 240 253 270 287 300 309 314 317 319 321 323 325 327 330 334 338 340 341 341 339 337 333 328 322 315 306 297 289 283 279 276 277 279 280 282 282 281 282 282 282 281 281 281
180 179 177 175 173 173 173 175 177 178 178 179 182 185 185 183 184 189 194 200 207 213 218 222 228 236 247 260 274 288 300 307 312 315 317 318 320 322 325 328 332 336 339 339 339 338 335 331 327 321 314 305 297 290 285 281 279 279 281 282 284 285 285 285 284 283 283 283 283
178 177 177 176 174 174 175 176 178 178 178 179 182 185 185 184 187 191 197 203 210 215 219 225 232 241 252 265 277 289 299 306 311 313 315 316 318 320 323 327 331 334 337 337 337 336 334 330 325 320 313 306 298 291 286 283 281 282 284 285 286 286 286 285 283 283 283 284 285
176 176 177 176 176 176 176 177 177 177 177 179 183 185 186 187 190 195 201 207 213 217 221 229 236 245 254 265 277 288 297 304 308 311 313 314 317 319 323 326 330 333 335 335 336 335 333 329 324 318 311 305 298 292 287 284 284 284 286 287 287 286 285 284 284 284 285 285 287
175 175 176 177 177 177 177 177 177 176 177 180 184 186 188 191 195 201 207 212 217 221 226 233 240 247 255 265 276 286 294 301 305 309 311 313 316 319 323 326 329 331 333 334 334 334 332 328 323 316 309 302 296 291 287 285 285 287 288 288 287 286 285 285 286 287 288 288 289
175 175 176 177 178 178 178 177 176 176 178 181 185 189 191 195 200 206 211 216 221 225 231 237 243 248 255 264 274 284 292 298 303 307 310 313 316 319 323 326 328 330 331 332 333 333 331 326 321 314 308 302 296 292 289 287 286 287 287 286 286 285 286 287 289 291 292 292 291
175 176 177 177 178 178 177 176 176 177 179 183 188 192 196 199 205 210 215 220 224 230 236 241 246 250 257 265 274 282 290 296 301 305 309 312 316 319 322 325 327 328 329 331 332 332 330 325 320 314 308 302 297 293 290 287 285 284 282 281 281 282 283 285 289 292 293 292 290
177 177 178 178 178 178 177 177 177 179 182 186 191 196 200 204 209 214 219 224 229 235 240 244 248 253 260 267 274 282 290 295 300 304 307 311 314 318 321 323 325 327 328 330 331 331 330 326 321 315 308 301 295 291 287 283 279 276 273 273 274 276 278 281 285 288 289 288 287
178 178 179 179 178 179 179 179 179 181 184 189 194 199 204 210 215 219 224 229 234 239 243 247 251 256 262 268 276 283 289 294 299 302 306 309 313 316 319 322 324 326 327 329 331 331 329 326 322 315 308 298 291 285 280 276 272 269 268 269 271 273 275 278 280 281 282 282 282
180 180 180 179 180 181 182 182 182 183 186 191 197 203 210 216 221 225 229 233 238 243 247 250 253 258 263 269 276 283 289 293 297 301 305 308 311 315 318 321 323 325 327 329 330 330 329 326 321 315 307 296 288 281 275 271 269 268 269 270 272 274 275 275 276 276 276 277 278
181 181 180 180 182 184 184 184 184 186 189 195 203 210 216 222 226 230 233 237 240 245 249 252 255 259 264 270 276 283 288 292 297 301 304 308 311 315 318 321 323 324 326 328 329 330 329 326 321 314 305 294 286 279 274 272 272 272 272 274 274 275 274 274 273 273 273 275 276
182 181 180 180 184 186 186 186 187 190 195 202 209 217 222 227 230 233 236 239 242 246 250 254 256 260 264 270 277 283 288 293 297 301 305 308 312 315 318 320 322 324 326 327 329 330 329 326 320 311 302 293 285 280 277 278 276 275 275 275 275 274 274 274 274 274 274 276 277
182 181 180 181 185 186 186 188 191 196 202 209 216 222 227 231 233 235 238 240 244 248 251 254 257 260 265 271 277 283 288 293 298 301 305 308 313 316 318 320 322 324 326 327 329 330 327 322 314 305 297 292 286 282 281 282 280 278 278 278 278 278 278 278 279 279 280 280 281
182 181 181 183 185 186 187 191 196 202 208 215 221 226 230 233 235 237 239 242 245 248 251 254 257 261 266 271 277 283 288 293 297 301 305 309 314 316 318 319 322 324 326 327 328 327 322 316 308 301 295 291 287 285 284 284 283 283 283 283 283 284 286 286 287 287 286 286 287
182 180 181 184 185 186 190 195 201 207 213 219 224 229 232 234 236 238 241 244 247 250 252 254 257 261 267 273 278 283 288 293 297 301 305 310 315 318 319 320 322 324 324 323 323 322 318 313 307 302 297 292 289 287 286 286 286 287 288 289 291 293 294 295 295 294 293 292 291
181 180 181 184 185 188 193 200 206 211 216 221 225 230 233 235 237 241 244 247 249 251 252 255 259 263 268 274 279 283 288 293 298 303 308 313 317 319 320 320 322 321 320 319 321 320 317 312 307 302 298 295 291 289 288 288 289 290 292 295 297 299 300 300 300 299 297 296 295
181 180 181 185 188 193 198 205 210 214 219 223 227 230 233 236 240 244 247 249 251 252 254 257 260 265 270 275 280 284 289 294 299 305 311 317 320 320 319 320 320 318 317 319 321 320 318 313 308 303 300 297 294 292 291 291 292 293 296 298 301 302 303 303 303 301 299 297 295
181 181 184 189 193 198 203 208 213 217 221 224 227 229 233 237 241 245 248 250 252 253 255 258 263 268 272 277 281 285 290 296 301 308 315 320 322 321 319 318 316 314 315 318 319 319 316 313 309 305 301 298 295 294 293 293 294 295 298 300 303 304 305 305 303 301 297 294 292
182 185 191 196 199 202 206 211 215 219 221 223 225 228 232 238 243 246 248 250 252 254 257 261 266 270 274 278 283 288 294 300 305 311 318 323 324 322 319 317 314 313 315 318 319 317 315 312 308 305 302 299 296 295 294 295 296 298 300 302 304 306 306 306 303 300 296 293 291
185 191 197 201 203 205 209 213 215 217 219 222 224 228 233 238 241 244 247 249 253 256 260 264 268 272 276 280 285 291 298 304 310 315 320 325 325 322 319 318 313 313 316 319 319 317 314 311 308 307 305 301 299 297 296 297 298 300 302 304 305 307 307 306 302 297 294 292 291
190 197 203 204 205 207 210 212 214 217 219 222 225 228 232 236 239 243 246 250 254 258 262 266 270 274 278 282 287 294 301 308 312 317 323 327 325 321 319 318 312 312 315 318 318 316 313 310 309 308 307 304 302 300 299 299 299 300 302 304 305 306 307 305 301 295 292 292 292
196 203 206 206 207 209 211 213 215 217 220 222 225 228 231 235 238 242 246 250 254 259 263 267 270 274 279 283 287 295 303 309 313 319 324 326 323 319 318 316 308 309 313 316 316 314 312 310 309 309 308 306 304 301 300 299 299 300 302 303 304 305 305 302 297 293 291 291 291
202 207 208 208 209 210 212 213 215 218 220 223 225 228 231 234 237 241 246 250 255 260 263 266 269 273 276 280 287 296 304 311 316 321 325 325 321 319 317 310 303 306 311 313 312 311 309 308 308 308 307 305 303 301 299 299 299 300 301 302 303 303 301 297 292 289 289 289 289
206 208 209 209 210 212 213 214 216 219 222 224 227 229 231 234 237 241 246 251 256 259 261 263 266 270 275 280 289 298 306 312 316 321 324 324 320 318 314 305 303 307 310 310 309 307 305 304 304 303 302 301 299 298 297 297 298 300 301 301 300 297 293 287 284 284 284 284 284
209 209 208 209 211 213 214 215 218 221 224 226 228 230 232 234 237 240 245 250 254 257 259 261 265 270 277 285 293 301 306 311 315 320 323 323 319 316 311 302 304 307 309 308 306 304 302 300 300 299 297 296 295 295 295 296 297 299 299 299 295 290 283 277 276 277 277 277 278
210 209 208 210 212 214 215 218 221 224 226 228 230 231 232 234 236 239 244 249 253 255 257 260 264 270 277 284 293 299 304 309 314 318 321 321 317 314 308 302 305 307 307 305 303 301 300 298 297 296 294 293 293 293 294 295 296 297 297 295 292 285 279 275 273 272 272 272 273
211 210 210 212 214 215 218 220 223 226 228 230 232 232 232 234 236 240 244 249 251 253 254 257 261 267 274 282 290 297 303 308 312 316 319 319 316 312 306 301 303 305 304 301 300 299 297 296 295 293 292 291 292 292 293 293 294 294 294 294 291 287 281 278 275 273 272 270 270
212 212 214 216 217 218 220 223 225 228 230 233 233 232 231 233 236 240 244 248 250 250 252 255 260 267 275 282 290 297 304 309 312 315 316 317 313 309 303 298 300 302 301 298 297 296 295 294 293 292 291 291 291 292 292 292 292 292 293 294 294 292 287 282 279 277 275 273 271
215 216 219 221 222 222 223 224 226 229 232 233 232 231 231 232 235 239 244 246 247 249 252 257 264 271 278 284 292 300 306 311 313 314 314 314 310 306 300 294 294 297 298 295 294 293 293 293 292 292 291 291 291 292 291 291 292 293 295 297 297 296 291 287 284 282 280 278 276
217 219 223 226 226 225 224 225 227 231 233 232 230 229 229 232 235 239 243 245 245 248 254 261 268 274 279 285 294 302 309 312 313 312 312 310 306 302 297 289 284 288 292 292 291 290 291 292 293 293 292 292 292 292 292 292 294 296 297 298 298 296 293 289 287 286 285 284 284
218 222 225 228 229 228 226 226 228 230 230 228 226 225 227 231 236 240 243 244 245 249 257 265 271 275 279 286 295 303 308 310 310 310 310 307 302 300 296 289 278 281 287 290 290 289 290 293 294 295 295 294 294 294 293 294 296 298 298 298 297 295 292 291 290 290 290 290 290
220 223 226 229 229 228 227 227 227 226 225 224 223 223 225 230 236 240 242 242 244 249 256 263 268 272 278 288 297 303 307 309 309 310 309 307 301 298 296 292 284 283 287 290 290 291 292 295 298 299 299 298 297 296 296 297 298 299 298 297 296 294 293 293 293 294 295 295 295
221 224 227 228 227 226 226 226 224 221 220 220 220 222 226 232 237 240 240 240 243 247 252 258 264 271 280 290 298 304 307 309 309 309 308 305 301 297 295 293 291 289 289 290 291 292 295 298 301 303 303 302 301 299 299 299 300 300 298 297 296 296 296 297 299 300 301 301 299
Height
1457 1459 1460 1461 1463 1465 1466 1468 1470 1472 1475 1477 1479 1481 1482 1483 1484 1485 1486 1487 1488 1488 1489 1490 1490 1491 1491 1492 1493 1494 1495 1495 1495 1495 1495 1495 1495 1495 1495 1495 1495 1494 1494 1494 1493 1493 1492 1491 1491 1490 1490 1489 1489 1489 1488 1488 1488 1488 1488 1487 1487 1487 1487 1486 1486 1486 1486 1486 1485
1456 1458 1460 1461 1463 1464 1466 1468 1470 1471 1474 1476 1478 1480 1481 1482 1483 1484 1485 1486 1486 1487 1488 1489 1489 1490 1491 1491 1492 1493 1493 1494 1494 1494 1494 1494 1494 1494 1494 1494 1493 1493 1493 1492 1492 1491 1491 1490 1489 1489 1488 1488 1487 1487 1487 1487 1487 1486 1486 1486 1486 1486 1485 1485 1485 1484 1484 1484 1484
1456 1458 1460 1461 1462 1464 1465 1467 1469 1471 1472 1475 1477 1478 1480 1481 1481 1482 1483 1484 1485 1486 1487 1488 1488 1489 1490 1491 1491 1492 1492 1492 1493 1493 1493 1493 1493 1493 1493 1492 1492 1492 1491 1491 1491 1490 1489 1489 1488 1487 1487 1486 1486 1486 1485 1485 1486 1485 1485 1485 1484 1484 1484 1484 1483 1483 1483 1482 1482
1456 1458 1459 1460 1461 1463 1464 1466 1468 1470 1471 1473 1475 1477 1478 1479 1480 1481 1482 1483 1484 1485 1486 1487 1488 1488 1489 1490 1490 1491 1491 1491 1491 1492 1492 1491 1491 1491 1491 1491 1491 1491 1490 1490 1489 1488 1488 1487 1486 1486 1485 1485 1484 1484 1484 1484 1484 1484 1484 1483 1483 1483 1482 1482 1482 1481 1481 1481 1481
1455 1456 1458 1459 1460 1461 1463 1465 1466 1468 1470 1472 1474 1476 1477 1478 1479 1480 1481 1482 1483 1484 1485 1486 1487 1488 1488 1489 1489 1490 1490 1490 1490 1491 1491 1490 1490 1490 1490 1490 1489 1489 1489 1488 1488 1487 1486 1486 1485 1484 1484 1484 1483 1483 1483 1483 1483 1483 1482 1482 1482 1481 1481 1481 1480 1480 1480 1479 1479
1453 1455 1456 1458 1459 1461 1462 1464 1465 1467 1469 1471 1472 1474 1476 1476 1478 1479 1480 1481 1482 1483 1484 1485 1486 1487 1487 1488 1488 1489 1489 1489 1489 1489 1489 1489 1489 1488 1488 1488 1488 1487 1487 1487 1486 1486 1485 1484 1484 1483 1483 1482 1482 1482 1482 1482 1482 1481 1481 1481 1480 1480 1480 1479 1479 1478 1478 1478 1477
1452 1454 1456 1457 1459 1460 1461 1463 1464 1466 1468 1469 1471 1473 1474 1475 1476 1478 1479 1480 1481 1482 1483 1484 1485 1486 1486 1487 1487 1487 1487 1487 1488 1487 1487 1487 1487 1487 1487 1487 1486 1486 1486 1485 1484 1484 1483 1483 1482 1481 1481 1481 1481 1481 1481 1481 1480 1480 1479 1479 1479 1478 1478 1477 1477 1477 1476 1476 1475
1452 1453 1455 1457 1458 1460 1461 1462 1464 1465 1467 1468 1470 1471 1473 1474 1476 1477 1478 1479 1480 1481 1482 1483 1484 1485 1485 1486 1486 1486 1486 1486 1486 1486 1486 1486 1486 1486 1486 1486 1485 1485 1484 1483 1483 1482 1482 1481 1481 1480 1480 1479 1479 1479 1479 1479 1479 1478 1478 1477 1477 1476 1476 1476 1475 1475 1474 1474 1473
1451 1453 1455 1456 1458 1459 1461 1462 1463 1464 1466 1467 1469 1471 1472 1473 1475 1476 1476 1478 1479 1480 1481 1482 1483 1483 1484 1484 1485 1485 1485 1485 1485 1485 1485 1485 1485 1485 1484 1484 1484 1483 1482 1482 1481 1481 1480 1480 1479 1479 1478 1478 1478 1477 1477 1477 1477 1476 1476 1476 1475 1475 1474 1474 1474 1473 1472 1472 1471
1450 1452 1454 1456 1457 1459 1461 1462 1463 1464 1465 1466 1468 1470 1471 1472 1473 1475 1476 1477 1478 1479 1480 1481 1481 1482 1483 1483 1483 1483 1483 1484 1483 1483 1483 1483 1483 1483 1483 1482 1482 1481 1481 1481 1480 1480 1479 1478 1478 1477 1477 1476 1476 1476 1476 1475 1475 1475 1474 1474 1473 1473 1473 1472 1472 1471 1471 1470 1470
1448 1451 1453 1455 1457 1459 1460 1461 1462 1463 1465 1466 1467 1469 1470 1471 1472 1474 1475 1476 1477 1478 1479 1480 1480 1481 1481 1481 1482 1482 1482 1482 1482 1482 1482 1482 1482 1482 1481 1481 1481 1480 1480 1479 1479 1478 1478 1477 1476 1476 1475 1475 1475 1474 1474 1474 1473 1473 1472 1472 1472 1471 1471 1471 1470 1469 1469 1468 1468
1448 1450 1452 1454 1456 1458 1460 1461 1461 1462 1464 1465 1466 1467 1468 1470 1471 1472 1474 1475 1476 1477 1477 1478 1479 1480 1480 1480 1480 1481 1481 1481 1481 1481 1481 1481 1481 1480 1480 1480 1479 1479 1478 1478 1477 1477 1476 1476 1475 1474 1474 1473 1473 1473 1472 1472 1471 1471 1471 1471 1470 1470 1469 1468 1468 1467 1467 1466 1466
1447 1449 1451 1454 1456 1457 1459 1460 1461 1461 1463 1464 1464 1466 1467 1469 1470 1471 1472 1474 1475 1475 1476 1477 1478 1478 1479 1479 1479 1479 1479 1479 1479 1479 1479 1479 1479 1479 1478 1478 1478 1477 1477 1476 1476 1476 1475 1474 1474 1473 1472 1472 1471 1471 1471 1470 1470 1470 1469 1469 1469 1468 1467 1467 1466 1466 1465 1465 1465
1447 1449 1451 1453 1455 1456 1458 1459 1460 1461 1461 1462 1463 1464 1466 1467 1469 1470 1471 1472 1473 1474 1475 1476 1476 1477 1477 1477 1478 1478 1478 1478 1478 1478 1478 1478 1478 1477 1477 1477 1476 1476 1476 1475 1475 1474 1474 1473 1472 1471 1471 1470 1470 1469 1469 1469 1469 1468 1468 1468 1467 1466 1466 1465 1465 1464 1464 1464 1464
1446 1448 1450 1452 1454 1456 1456 1457 1458 1459 1460 1461 1461 1463 1465 1466 1467 1469 1470 1471 1472 1473 1473 1474 1475 1476 1476 1476 1476 1476 1476 1477 1477 1477 1476 1476 1476 1476 1476 1475 1475 1475 1474 1474 1474 1473 1472 1472 1471 1470 1469 1469 1468 1468 1468 1467 1467 1467 1467 1466 1466 1465 1464 1464 1463 1463 1463 1462 1462
1446 1448 1449 1451 1453 1454 1455 1456 1457 1458 1459 1459 1461 1462 1463 1465 1466 1467 1469 1470 1471 1471 1472 1473 1473 1474 1474 1475 1475 1475 1475 1475 1475 1475 1475 1475 1475 1474 1474 1474 1474 1473 1473 1472 1472 1472 1471 1470 1469 1468 1468 1467 1467 1466 1466 1466 1466 1466 1465 1465 1464 1463 1463 1462 1462 1461 1461 1461 1460
1445 1447 1448 1450 1451 1453 1454 1455 1456 1457 1457 1458 1459 1461 1462 1463 1465 1466 1468 1469 1469 1470 1471 1471 1472 1472 1473 1473 1473 1474 1474 1474 1474 1474 1474 1474 1473 1473 1473 1472 1472 1472 1471 1471 1471 1470 1470 1469 1468 1467 1466 1466 1466 1466 1465 1465 1464 1464 1463 1462 1462 1461 1461 1461 1461 1460 1460 1459 1458
1444 1446 1447 1449 1450 1451 1452 1453 1455 1456 1456 1457 1458 1459 1461 1462 1464 1465 1466 1467 1468 1469 1470 1470 1471 1471 1471 1471 1472 1472 1472 1472 1472 1472 1472 1472 1472 1471 1471 1471 1471 1470 1470 1469 1469 1469 1468 1467 1466 1466 1465 1465 1465 1464 1464 1463 1462 1462 1461 1461 1461 1460 1460 1459 1459 1458 1458 1457 1456
1443 1445 1446 1447 1448 1449 1451 1452 1453 1454 1455 1455 1456 1458 1460 1461 1463 1464 1465 1466 1467 1467 1468 1469 1469 1470 1470 1470 1470 1471 1471 1471 1471 1471 1471 1471 1470 1470 1470 1469 1469 1468 1468 1468 1468 1467 1466 1466 1465 1464 1464 1464 1463 1463 1462 1461 1461 1461 1460 1459 1459 1458 1458 1457 1457 1456 1456 1455 1455
1441 1443 1444 1445 1446 1448 1449 1451 1451 1452 1453 1454 1456 1457 1459 1460 1462 1463 1464 1465 1466 1466 1467 1467 1468 1468 1469 1469 1469 1469 1469 1469 1469 1469 1469 1469 1468 1468 1468 1467 1467 1467 1466 1466 1466 1466 1465 1464 1464 1463 1463 1463 1462 1461 1461 1460 1460 1459 1458 1458 1457 1456 1456 1455 1455 1454 1454 1453 1453
1440 1441 1442 1444 1445 1446 1448 1449 1450 1451 1452 1453 1455 1456 1457 1459 1460 1461 1462 1463 1464 1465 1466 1466 1467 1467 1467 1467 1468 1468 1468 1468 1468 1468 1467 1467 1467 1466 1466 1466 1465 1465 1464 1464 1464 1464 1463 1463 1463 1462 1462 1461 1461 1460 1460 1459 1458 1457 1456 1456 1455 1455 1454 1453 1453 1452 1452 1451 1451
1439 1440 1441 1442 1444 1445 1446 1447 1448 1450 1451 1452 1454 1455 1456 1457 1459 1460 1461 1462 1463 1464 1464 1465 1465 1466 1466 1466 1466 1466 1466 1466 1466 1466 1466 1466 1465 1465 1464 1464 1463 1463 1462 1462 1463 1463 1462 1462 1461 1461 1460 1460 1459 1458 1458 1457 1456 1455 1455 1454 1453 1453 1452 1451 1451 1451 1450 1450 1450
1438 1439 1440 1441 1443 1444 1444 1445 1447 1448 1450 1451 1452 1453 1455 1456 1457 1458 1459 1461 1461 1462 1463 1463 1464 1464 1464 1465 1465 1465 1465 1465 1465 1464 1464 1464 1463 1463 1462 1462 1461 1461 1461 1461 1461 1461 1461 1461 1460 1459 1459 1458 1457 1457 1456 1455 1454 1453 1453 1452 1451 1451 1450 1450 1449 1449 1448 1448 1448
1437 1438 1439 1440 1441 1442 1443 1444 1446 1447 1448 1450 1451 1452 1453 1454 1455 1456 1458 1459 1460 1461 1461 1462 1462 1463 1463 1463 1463 1463 1463 1463 1463 1463 1462 1462 1462 1461 1460 1460 1459 1459 1459 1459 1460 1459 1459 1459 1458 1458 1457 1456 1456 1455 1454 1453 1453 1452 1451 1450 1449 1449 1448 1447 1447 1447 1447 1447 1447
1436 1436 1437 1438 1439 1440 1441 1442 1444 1446 1447 1448 1449 1450 1451 1453 1454 1455 1456 1457 1458 1459 1459 1460 1461 1461 1461 1462 1462 1462 1462 1461 1461 1461 1461 1461 1460 1459 1458 1458 1457 1457 1457 1457 1457 1457 1457 1456 1456 1456 1456 1455 1454 1454 1453 1452 1451 1450 1449 1449 1448 1447 1446 1446 1445 1445 1446 1446 1446
1434 1435 1436 1436 1437 1438 1439 1441 1442 1444 1445 1446 1447 1449 1450 1451 1452 1453 1454 1455 1456 1457 1458 1458 1459 1459 1460 1460 1460 1460 1460 1460 1460 1460 1459 1459 1458 1457 1456 1455 1455 1455 1455 1455 1456 1455 1455 1454 1454 1454 1454 1453 1453 1452 1451 1450 1450 1449 1448 1447 1446 1446 1445 1444 1444 1444 1444 1444 1445
1432 1433 1434 1435 1436 1437 1438 1439 1441 1442 1444 1445 1446 1447 1448 1449 1451 1451 1453 1454 1454 1455 1456 1456 1457 1458 1458 1458 1458 1458 1458 1458 1458 1458 1457 1457 1457 1456 1454 1453 1452 1452 1453 1454 1454 1453 1452 1452 1452 1452 1452 1452 1451 1451 1450 1449 1448 1447 1446 1446 1445 1444 1443 1443 1443 1443 1443 1443 1443
1431 1431 1432 1433 1434 1435 1436 1438 1439 1441 1442 1443 1444 1445 1446 1448 1449 1450 1451 1452 1453 1453 1454 1455 1455 1456 1456 1456 1457 1456 1456 1456 1456 1456 1456 1456 1455 1454 1452 1451 1450 1450 1451 1452 1451 1451 1450 1450 1450 1450 1450 1450 1450 1449 1448 1447 1446 1446 1445 1444 1443 1443 1442 1442 1441 1441 1441 1441 1441
1429 1429 1430 1431 1432 1433 1435 1436 1438 1439 1440 1441 1443 1444 1445 1446 1447 1448 1449 1450 1451 1452 1452 1453 1454 1454 1455 1455 1455 1455 1455 1455 1455 1455 1454 1454 1453 1452 1451 1450 1448 1448 1448 1449 1449 1449 1448 1447 1447 1447 1448 1448 1448 1448 1447 1446 1445 1444 1443 1443 1442 1441 1441 1441 1440 1440 1440 1440 1440
1427 1428 1429 1430 1431 1432 1433 1435 1436 1437 1438 1440 1441 1442 1443 1444 1446 1446 1447 1448 1449 1450 1451 1451 1452 1452 1453 1453 1453 1453 1453 1453 1453 1453 1453 1452 1452 1451 1449 1448 1447 1446 1446 1446 1446 1446 1446 1445 1445 1445 1446 1446 1446 1446 1445 1444 1443 1443 1442 1441 1441 1440 1440 1440 1439 1439 1439 1439 1439
1426 1426 1427 1428 1429 1430 1431 1433 1434 1435 1437 1438 1439 1441 1441 1443 1444 1445 1446 1447 1448 1449 1449 1450 1451 1451 1451 1452 1452 1452 1452 1452 1452 1452 1451 1451 1450 1449 1447 1446 1445 1444 1444 1444 1444 1444 1443 1443 1443 1443 1443 1443 1443 1443 1443 1442 1441 1441 1441 1440 1440 1439 1439 1438 1438 1438 1438 1437 1437
1424 1425 1426 1426 1427 1428 1430 1431 1432 1434 1435 1436 1437 1439 1440 1441 1442 1443 1445 1445 1446 1447 1448 1448 1449 1450 1450 1450 1450 1451 1451 1451 1450 1450 1450 1450 1449 1448 1446 1444 1442 1442 1442 1442 1442 1442 1442 1441 1441 1441 1441 1441 1441 1441 1441 1440 1440 1440 1439 1439 1438 1438 1437 1437 1437 1436 1436 1436 1436
1423 1423 1424 1425 1426 1427 1428 1429 1431 1432 1433 1435 1436 1437 1439 1440 1441 1442 1443 1444 1445 1446 1446 1447 1447 1448 1448 1449 1449 1449 1449 1449 1449 1449 1449 1449 1448 1447 1445 1442 1440 1440 1441 1441 1441 1441 1441 1441 1441 1441 1440 1440 1440 1439 1439 1439 1438 1438 1438 1437 1437 1436 1436 1436 1435 1435 1435 1434 1434
1421 1421 1422 1423 1424 1426 1427 1428 1429 1430 1431 1433 1435 1436 1437 1438 1440 1441 1441 1442 1443 1444 1444 1445 1446 1446 1447 1447 1447 1447 1447 1447 1447 1447 1447 1447 1446 1446 1444 1441 1439 1438 1439 1439 1439 1439 1439 1440 1440 1439 1439 1439 1438 1438 1438 1437 1437 1436 1436 1436 1435 1435 1434 1434 1433 1433 1433 1432 1431
1419 1420 1421 1421 1423 1424 1425 1426 1427 1429 1430 1431 1433 1435 1436 1437 1438 1439 1440 1441 1441 1442 1443 1444 1444 1445 1445 1446 1446 1446 1446 1446 1446 1446 1446 1446 1445 1444 1443 1440 1438 1437 1437 1438 1438 1438 1438 1438 1438 1438 1438 1437 1437 1436 1436 1436 1435 1435 1434 1434 1433 1433 1432 1432 1431 1431 1431 1430 1429
1418 1418 1419 1420 1421 1423 1424 1425 1426 1427 1429 1430 1431 1433 1434 1436 1436 1437 1438 1439 1440 1441 1441 1442 1443 1443 1444 1444 1444 1444 1445 1445 1445 1444 1444 1444 1444 1443 1442 1439 1437 1436 1436 1436 1436 1436 1436 1437 1437 1437 1436 1436 1436 1435 1435 1434 1434 1433 1432 1432 1431 1431 1431 1430 1429 1429 1428 1428 1427
1416 1417 1418 1419 1420 1421 1422 1424 1425 1426 1427 1429 1430 1431 1433 1434 1435 1436 1437 1437 1438 1439 1440 1441 1441 1442 1442 1442 1442 1443 1443 1443 1443 1442 1442 1442 1442 1442 1441 1439 1436 1435 1434 1435 1435 1435 1435 1435 1436 1436 1436 1435 1434 1434 1433 1432 1432 1431 1431 1430 1430 1429 1429 1428 1427 1427 1426 1426 1425
1415 1416 1417 1418 1419 1421 1421 1422 1423 1425 1426 1427 1429 1430 1431 1432 1433 1434 1435 1436 1437 1438 1439 1439 1440 1440 1440 1441 1441 1441 1441 1441 1441 1441 1441 1441 1440 1440 1440 1439 1437 1434 1433 1433 1434 1434 1434 1434 1435 1435 1434 1434 1433 1432 1431 1431 1430 1430 1429 1428 1428 1427 1426 1426 1425 1425 1424 1424 1423
1414 1415 1416 1417 1418 1419 1420 1421 1422 1423 1425 1426 1428 1429 1430 1431 1431 1432 1433 1435 1436 1436 1437 1438 1438 1438 1439 1439 1439 1439 1440 1439 1439 1439 1439 1439 1438 1438 1438 1438 1437 1434 1432 1432 1432 1433 1433 1433 1434 1434 1433 1432 1431 1431 1430 1429 1429 1428 1427 1426 1426 1425 1425 1424 1423 1422 1422 1422 1421
1412 1414 1415 1416 1417 1418 1419 1420 1421 1422 1423 1425 1426 1427 1428 1429 1430 1431 1432 1433 1434 1435 1436 1436 1436 1436 1437 1437 1437 1438 1438 1437 1437 1437 1437 1437 1436 1436 1436 1436 1436 1434 1432 1431 1431 1431 1431 1432 1432 1432 1432 1431 1430 1429 1428 1428 1427 1426 1426 1425 1424 1423 1423 1422 1421 1421 1421 1420 1420
1411 1412 1414 1415 1416 1417 1418 1419 1420 1421 1422 1424 1425 1426 1426 1427 1428 1429 1431 1432 1433 1434 1434 1435 1435 1435 1435 1436 1436 1436 1436 1436 1435 1435 1435 1435 1435 1434 1434 1434 1434 1432 1431 1429 1429 1429 1429 1430 1431 1430 1430 1430 1429 1428 1427 1426 1426 1425 1424 1423 1422 1422 1421 1420 1420 1419 1419 1418 1418